Location: *
(42.5000°S, 156.1167°W)
Time: 21:53:40
(UTC+00:00)

Daily predictions for brighter satellites

Satellite Brightness Start Highest point End
(mag) Time Altitude Azimuth Time Altitude Azimuth Time Altitude Azimuth
SJ 16-02 4.2 14:20:30 12° SE 14:21:26 12° SE 14:23:19 10° E
Cosmos 1603 3.8 14:49:11 73° ESE 14:49:11 73° ESE 14:54:31 10° SSE
Cosmos 1140 Rocket 4.1 14:56:08 47° NNE 14:56:08 47° NNE 14:59:48 10° NNE
SL-8 Rocket 3.8 14:56:34 81° WSW 14:56:34 81° WSW 15:02:46 10° S
USA 281 3.8 14:52:44 10° SSE 14:59:14 55° ENE 15:05:40 10° N
Cosmos 1809 Rocket 4.3 14:59:46 40° S 15:02:11 86° W 15:08:18 10° N
Cosmos 2341 Rocket 3.8 15:02:42 59° NW 15:03:51 75° W 15:10:10 10° S
Cosmos 2218 Rocket 3.8 15:02:25 10° N 15:08:45 79° W 15:15:06 10° S
Meteor 2-14 Rocket 4.3 15:06:46 33° SSW 15:09:42 79° W 15:15:47 10° N
ATLAS 2AS CENTAUR R/B 3.0 15:04:31 14° NNW 15:10:39 70° ENE 15:17:57 10° SE
Cosmos 1869 4.4 15:11:24 10° NNE 15:14:37 37° E 15:17:56 10° SSE
Meteor 2-21 4.3 15:09:50 10° S 15:15:59 88° E 15:22:05 10° N
Gbstr 26 Del rocket 4.4 15:14:52 37° SSW 15:16:10 43° SSE 15:22:13 10° E
BREEZE M DEB (TANK) 3.2 15:19:47 49° NNW 15:19:47 49° NNW 15:22:34 10° NNE
ATLAS 3B R/B 4.0 15:17:03 14° SSW 15:21:34 31° SE 15:27:19 10° E
Cosmos 1908 Rocket 4.0 15:18:41 10° N 15:23:05 63° E 15:27:32 10° SSE
Cosmos 304 Rocket 3.7 15:22:33 48° SSW 15:23:53 84° ESE 15:28:38 10° NNE
Cosmos 921 Rocket 3.0 15:25:15 71° NW 15:25:15 71° NW 15:29:24 10° N
Cosmos 1959 Rocket 4.4 15:19:16 10° NNW 15:25:29 63° W 15:31:52 10° S
Cosmos 1025 Rocket 2.9 15:25:09 67° S 15:25:44 90° E 15:29:59 10° N
COSMOS 2455 3.5 15:28:09 35° NW 15:28:09 35° NW 15:32:38 10° N
Cosmos 2366 rocket 4.2 15:26:55 10° NNW 15:33:01 48° WSW 15:39:09 10° S
Cosmos 2221 Rocket 3.8 15:29:42 11° S 15:33:56 71° E 15:38:20 10° NNE
Cosmos 1484 Rocket 3.1 15:37:13 10° NNE 15:40:36 56° ESE 15:42:55 19° S
Cosmos 2239 Rocket 4.5 15:35:23 10° N 15:41:34 83° E 15:47:48 10° S
ARIANE 6 FM1 Upper Stage 4.4 15:44:53 20° NW 15:44:53 20° NW 15:47:00 10° N
Cosmos 405 Rocket 3.3 15:45:25 31° N 15:45:25 31° N 15:47:08 10° N
Cosmos 1356 Rocket 4.1 15:41:02 10° N 15:44:58 53° E 15:49:01 10° SSE
Cosmos 371 Rocket 3.2 15:45:41 30° SW 15:47:57 65° WNW 15:52:42 10° N
Cosmos 2056 Rocket 4.3 15:44:29 10° N 15:49:26 52° ENE 15:54:30 10° SSE
Meteor 2-8 Rocket 4.4 15:44:16 10° NNW 15:50:27 78° W 15:56:42 10° S
ISS -3.1 15:52:14 40° SSW 15:52:14 40° SSW 15:55:25 10° SE
SL-4 R/B 3.0 15:53:12 23° NNW 15:53:12 23° NNW 15:55:15 10° NNE
SL-16 R/B 2.5 15:46:51 10° S 15:53:09 71° WSW 15:59:25 10° NNW
Cosmos 1656 3.5 15:51:00 16° SSW 15:55:32 79° WNW 16:01:02 10° NNE
Cosmos 1821 Rocket 4.2 15:51:57 10° NNW 15:57:46 45° WSW 16:03:42 10° S
SJ 16-02 1.2 15:57:01 19° SSW 16:00:02 71° WNW 16:04:20 10° N
Cosmos 1000 Rocket 4.4 15:56:00 10° S 16:02:24 80° W 16:08:39 10° N
Cosmos 2058 4.5 15:59:12 10° S 16:02:55 34° ESE 16:06:35 10° NE
MOS 1 Rocket 4.1 16:00:43 10° NNW 16:04:41 29° W 16:05:41 27° WSW
Cosmos 1980 Rocket 4.3 16:00:54 10° S 16:05:15 22° SE 16:09:34 10° E
Cosmos 1727 Rocket 4.0 15:59:31 10° SSW 16:05:47 60° W 16:12:02 10° N
CBERS-1 3.9 16:02:02 10° N 16:07:10 72° WNW 16:12:22 10° SSW
DELTA 2 R/B (1) 4.0 16:03:49 18° WNW 16:07:56 58° NNE 16:13:24 10° E
USA 32 4.4 16:04:29 10° NNW 16:09:26 41° W 16:14:26 10° S
Cosmos 1833 Rocket 2.8 16:04:20 10° NNW 16:09:59 82° ENE 16:15:42 10° SSE
Cosmos 1867 3.9 16:08:16 16° WNW 16:12:14 43° SW 16:17:24 10° SSE
Cosmos 2123 Rocket 4.0 16:08:56 10° S 16:15:13 90° W 16:21:27 10° N
SMAP 3.2 16:10:42 10° N 16:15:18 55° W 16:19:58 10° SSW
ARIANE 5 R/B 2.8 16:12:08 10° NNE 16:17:06 67° ESE 16:22:08 10° S
Cosmos 1190 Rocket 4.0 16:11:47 10° SSW 16:17:07 83° WNW 16:22:25 10° NNE
Cosmos 2360 4.4 16:16:23 10° SSW 16:22:01 55° WNW 16:27:33 10° N
Resurs 1-3 4.2 16:23:12 10° NNE 16:27:27 60° ESE 16:31:46 10° S
Cosmos 1934 Rocket 4.0 16:21:37 10° NNW 16:27:57 74° W 16:34:26 10° S
Cosmos 407 Rocket 4.4 16:25:56 14° SW 16:29:35 28° W 16:34:00 10° NNW
YAOGAN 1 3.3 16:28:42 10° NNE 16:32:53 56° ESE 16:37:09 10° S
Cosmos 1954 Rocket 4.0 16:27:41 10° SSW 16:33:02 72° WNW 16:38:19 10° N
USA 307 3.1 16:34:33 15° SSW 16:34:33 15° SSW 16:35:30 10° S
Cosmos 1371 Rocket 4.0 16:31:52 10° NNW 16:37:00 63° WSW 16:42:12 10° SSE
Cosmos 972 Rocket 4.2 16:33:14 10° N 16:38:20 73° ENE 16:43:17 10° SSE
Meteor 1-28 Rocket 3.8 16:36:26 10° SSW 16:39:17 27° WSW 16:42:07 10° NW
CZ-4C R/B 3.1 16:33:59 10° NW 16:43:03 78° SW 16:50:36 10° SE
Cosmos 1315 Rocket 4.0 16:40:26 10° WNW 16:43:19 20° WSW 16:46:15 10° SSW
USA 281 3.9 16:37:41 10° S 16:43:24 32° SW 16:49:07 10° WNW
Cosmos 1975 Rocket 3.1 16:39:54 10° SSW 16:44:22 62° W 16:48:47 10° N
Cosmos 44 Rocket 3.2 16:44:47 10° NW 16:49:26 58° SW 16:54:02 10° SSE
USA 215 4.0 16:43:42 10° E 16:49:55 46° SSE 16:56:10 10° SW
USA 229 DEB 3.5 16:43:42 10° SW 16:49:58 60° WNW 16:55:38 10° NNE
USA 229 3.5 16:43:45 10° SW 16:50:02 62° WNW 16:55:42 10° NNE
Resurs 01 Rocket 2.5 16:50:26 10° NNE 16:54:45 52° ESE 16:59:07 10° S
Cosmos 676 Rocket 4.1 16:51:15 10° SSW 16:56:32 61° WNW 17:01:46 10° N
Cosmos 2251 Rocket 4.2 16:52:38 10° SW 16:57:21 34° W 17:02:02 10° NNW
UNK 4.5 16:56:13 10° S 17:00:19 31° WSW 17:04:22 10° NW
BREEZE M DEB (TANK) 1.4 16:58:19 10° WNW 17:01:25 58° SSW 17:03:35 10° SE
ATLAS 2AS CENTAUR R/B 3.5 16:55:48 10° W 17:02:11 33° SW 17:08:43 10° SSE
Gbstr 26 Del rocket 4.1 16:57:17 10° WSW 17:03:03 73° NW 17:10:01 10° NE
